Voltar ao catálogo

STARLINK-37041

AtivoComunicaçõesSSO
NORAD 68104·PAYLOAD·🇺🇸 United States

Lançado Mar 8, 2026 de Vandenberg Space Force Base

Loading…

Próximas Passagens (próximas 24 horas)

TLE

AtualizadoSource: CelesTrak SupGP

Época: Sep 14, 2026, 14:54 UTC

1 68104C 26044D   26257.62131944 -.00016354  00000+0 -50764-3 0  2579
2 68104  97.2855 216.6025 0001901  91.5452 257.3060 15.33448087    13

Acompanhe STARLINK-37041 em tempo real com AllMySat

Download on the App Store